Regional Weather Roundup
Issued by NWS New Orleans/Baton Rouge, LA

Home | Current Version | Previous Version | Text Only | Print | Product List | Glossary On
Versions: 1 2 3 4 5 6 7 8 9 10 11 12 13 14 15 16 17 18 19 20 21 22 23 24 25 26 27
000
ASUS44 KLIX 241311
RWRLIX
NEW ORLEANS REGIONAL WEATHER ROUNDUP
NATIONAL WEATHER SERVICE NEW ORLEANS LA
800 AM CDT WED AUG 24 2016

NOTE: "FAIR" INDICATES FEW OR NO CLOUDS BELOW 12,000 FEET WITH NO
      SIGNIFICANT WEATHER AND/OR OBSTRUCTIONS TO VISIBILITY.
      SKY/WX - SKY CONDITION AND SIGNIFICANT WEATHER.
      TMP - AIR TEMPERATURE.     DP    - DEWPOINT TEMPERATURE.
      RH  - RELATIVE HUMIDITY.   PRES  - PRESSURE.
      HI  - HEAT INDEX.          WCI   - WIND CHILL INDEX.

*  THESE STATIONS ARE NOT NWS OR FAA STATIONS AND ARE NOT UNDER
   NWS QUALITY CONTROL.

LAZ038-040-048-061>063-065>067-069-241400-
SOUTHEAST LOUISIANA

CITY           SKY/WX    TMP DP  RH WIND       PRES   REMARKS
N.O. AUDUBON   NOT AVBL
N.O. INTL ARPT MOSUNNY   87  77  72 N5        30.15R HX  99
N.O. LAKEFRONT MOSUNNY   86  77  74 N7        30.16R HX  97
N.O. DOWNTOWN*   N/A     85  77  77 N5        30.16R HX  95
RESERVE*         N/A     82  79  89 N3        30.16R
SLIDELL        MOSUNNY   80  77  90 CALM      30.15R
BATON ROUGE    CLOUDY    80  78  94 NE3       30.16R
BOOTHVILLE     SUNNY     83  79  88 NW3       30.15R
BELLE CHASSE   NOT AVBL
BOGALUSA*        N/A     79  74  86 CALM      30.18R
GALLIANO*      SUNNY    N/A N/A N/A CALM      30.16R
NEW ROADS*       N/A     78  77  98 N3        30.16R
GONZALES*        N/A     81  78  92 NW3       30.15R
HAMMOND*       MOSUNNY   79  73  83 CALM      30.16R
HOUMA*         NOT AVBL
PORT FOURCHON* SUNNY     84  75  74 N7        30.15R

$$

MSZ070-080>082-241400-
SOUTHERN MISSISSIPPI

CITY           SKY/WX    TMP DP  RH WIND       PRES   REMARKS
MCCOMB         MOSUNNY   79  74  84 CALM      30.18R
GULFPORT       MOSUNNY   80  76  87 NE5       30.15R
BILOXI         SUNNY     81  78  88 NE5       30.15R
PASCAGOULA     MOSUNNY   82  80  94 N3        30.16R
STENNIS ARPT*  SUNNY     79  72  78 VRB5      30.16R

$$

COASTAL OBSERVATIONS
LAKE AND NEARSHORE STATIONS

STATION/POSITION TIME  TEMP    WIND        PRES    WAVE
                       AIR SEA DIR/SP/G            HT/PER
                 (UTC) (F)     (DEG/KT/KT) (MB)    (FT/S)
PASCAGOULA       1200   81      20/  5/  7 1020.4
WAVELAND YACHT   1200   81 87   50/  6/  7 1021.0
GRAND ISLE       1200   85 89   10/  8/  9 1020.7
SOUTHWEST PASS   1200          360/  3/  3   N/A
NEW CANAL        1200   84 87  350/  6/  8 1019.9
SHELL BEACH      1200   85 88  350/  9/ 10 1020.8

OFFSHORE STATIONS

STATION/POSITION TIME  TEMP    WIND        PRES    WAVE
                       AIR SEA DIR/SP/G            HT/PER
                 (UTC) (F)     (DEG/KT/KT) (MB)    (FT/S)
64 S DAUPHIN ISL 1200   85 89   50/  8/ 10 1020.4

$$





USA.gov is the U.S. government's official web portal to all federal, state and local government web resources and services.